MOLNIYA 1-86

Last updated on Wed Jun 28 2023 00:02:59 GMT+0000 (Coordinated Universal Time)

1 22671U 93035A 23178.09303090 .00000207 00000+0 37225-3 0 9993 2 22671 63.1443 19.0119 4847255 12.9491 356.1062 5.62952332373332
UTC large
Height (km)
Speed (km/s)
/
Latitude / Longitude
Inclination (degrees)
Orbital Period (minutes)
Azimuth
Elevation
Range (km)
Doppler Factor

Next 0 passes for location: London (51.5072 / 0.1276)

Sorry there are no passes over London.
MOLNIYA 1-86